Other Public Products
Issued by NWS Grand Forks, ND

Home | Current Version | Previous Version | Graphics & Text | Print | Product List | Glossary On
Versions: 1 2 3 4 5 6 7 8 9 10 11 12 13 14 15 16 17 18 19 20 21 22 23 24 25 26 27 28 29 30 31 32 33 34 35 36 37 38 39 40 41 42 43 44 45 46 47 48 49 50
000
FPUS83 KFGF 251331
OPUFGF
PRAIRIE TO PINES WEATHER ROUNDUP
NATIONAL WEATHER SERVICE EASTERN NORTH DAKOTA/GRAND FORKS ND
800 AM CDT FRI JUL 25 2014

 **SATELLITE DATA USED TO AUGMENT SKY COVER AT AUTOMATED STATIONS**
 *****  WEATHER ACROSS EASTERN NORTH DAKOTA  *****

CITY           SKY/WX    TMP DP  RH WIND       PRES   REMARKS
GRAND FORKS    MOSUNNY   67  62  84 SW5       29.71R
GRAND FORKS AF MOSUNNY   68  66  93 W5        29.72R
GRAND CITY NWS   N/A     68 N/A N/A NW5         N/A
BUXTON           N/A     67  67  97 S7          N/A
DEVILS LAKE    PTSUNNY   68  61  77 NW13      29.76R
FARGO          MOSUNNY   68  62  81 S10       29.72S
WAHPETON ARPT  CLOUDY    64  61  88 SE9       29.76R
$$

 *****  WEATHER ACROSS CENTRAL AND WESTERN NORTH DAKOTA  *****

CITY           SKY/WX    TMP DP  RH WIND       PRES   REMARKS
JAMESTOWN      PTSUNNY   64  62  93 S6        29.75R
BISMARCK       MOSUNNY   69  64  84 NW9       29.82R
MINOT          SUNNY     63  49  60 W9        29.82R
MINOT AFB      SUNNY     60  56  85 W7        29.82R
GARRISON         N/A     61  55  81 NW9       29.84R
WILLISTON      SUNNY     57  51  80 W12       29.87F
DICKINSON      SUNNY     56  51  84 W8        29.91R
HETTINGER      SUNNY     58  47  66 NW7       29.94R
$$

 *****  OTHER OBSERVATIONS NORTHEAST NORTH DAKOTA  *****

CITY           SKY/WX    TMP DP  RH WIND       PRES   REMARKS
WALHALLA         N/A     72  68  88 W7G20       N/A
LANGDON        PTSUNNY   68  64  88 W8        29.76F
CAVALIER       FAIR      68  64  88 W10       29.73S
GRAFTON        FAIR      68  63  83 W10       29.75R
CANDO          CLOUDY    66  66 100 W6        29.77S FOG
FORT TOTTEN    NOT AVBL
ROLLA          CLOUDY    66  66 100 W8        29.79R
RUGBY          PTSUNNY   64  63  94 NW13      29.78S
 ***** THE ABOVE OBSERVATIONS ARE NON NWS ARE NOT QUALITY
        CONTROLLED AND MAY MIS-REPORT RAIN FOR SNOW...
$$

 *****  OTHER OBSERVATIONS SOUTHEAST NORTH DAKOTA *****

CITY           SKY/WX    TMP DP  RH WIND       PRES   REMARKS
COOPERSTOWN    NOT AVBL
VALLEY CITY    CLOUDY    64  64 100 S14       29.74F
OAKES          NOT AVBL
GWINNER        CLOUDY    64  64 100 SE3       29.76R
BUFFALO        NOT AVBL
WYNDMERE       NOT AVBL
 ***** THE ABOVE OBSERVATIONS ARE NON NWS ARE NOT QUALITY
       CONTROLLED AND MAY MIS-REPORT RAIN FOR SNOW...
$$

  *****  WEATHER ACROSS NORTHERN MINNESOTA  *****

CITY           SKY/WX    TMP DP  RH WIND       PRES   REMARKS
FLAG ISLAND    PTSUNNY   66  63  88 SE6       29.73F
WARROAD        PTSUNNY   64  61  88 CALM      29.76R
ROSEAU         CLOUDY    66  61  82 CALM      29.76R
HALLOCK        PTSUNNY   68  64  88 SW5       29.74R
THF RVR FALLS  PTSUNNY   66  61  82 CALM      29.77R
HALSTAD          N/A     68  63  83 S16         N/A
FOSSTON        MOSUNNY   64  59  82 S14       29.74S
BAUDETTE       MOSUNNY   65  60  84 SE6       29.76F
WASKISH        PTSUNNY   64  64 100 E6        29.76F
CROOKSTON      MOSUNNY   68  63  83 SW3       29.75R
$$
  *****  WEATHER ACROSS CENTRAL AND WEST MINNESOTA  *****

CITY           SKY/WX    TMP DP  RH WIND       PRES   REMARKS
BEMIDJI        MOSUNNY   66  60  80 S9        29.76S
PARK RAPIDS    MOSUNNY   64  61  90 S13       29.78F
WADENA         CLOUDY    64  61  88 SE9       29.79F
DETROIT LAKES  CLOUDY    64  61  88 S10       29.80R
MOORHEAD       SUNNY     68  66  94 S12       29.74S
FERGUS FALLS   CLOUDY    66  63  88 SE9       29.77R
ELBOW LAKE     CLOUDY    65  63  93 SE12      29.77S
MORRIS MN      MOSUNNY   66  64  94 SE7       29.77R
STAPLES        CLOUDY    64  61  88 SE7       29.82R
WHEATON        MOSUNNY   63  63 100 SE10      29.77S
$$
  *****  WEATHER ELSEWHERE ACROSS MINNESOTA  *****

CITY           SKY/WX    TMP DP  RH WIND       PRES   REMARKS
DULUTH         CLOUDY    64  58  80 SE8       29.82F
INTRNTL FALLS  MOSUNNY   66  61  84 S5        29.77F
ELY            PTSUNNY   64  61  88 CALM      29.82F
CLOQUET        CLOUDY    64  61  88 S3        29.82R
BRAINERD       CLOUDY    63  62  97 S13G23    29.80F
HIBBING        CLOUDY    64  60  87 SE8       29.81S
ALEXANDRIA     CLOUDY    65  63  93 SE7       29.82R
SAINT CLOUD    CLOUDY    66  63  90 E6        29.84R
MINNEAPOLIS    CLOUDY    66  63  90 S6        29.86R
$$

  *****  WEATHER ACROSS SOUTH DAKOTA  *****

CITY           SKY/WX    TMP DP  RH WIND       PRES   REMARKS
SIOUX FALLS    MOSUNNY   68  62  81 SE17G28   29.77F
BROOKINGS      NOT AVBL
WATERTOWN      MOSUNNY   67  63  87 S12G21    29.75R
HURON          MOSUNNY   69  62  78 S8        29.74F
SISSETON         N/A     66  65  96 S5        29.74R
ABERDEEN       PTSUNNY   68  65  90 CALM      29.74R
MITCHELL       MOSUNNY   68  63  84 SE8       29.75R
PIERRE         MOSUNNY   71  66  84 NW20G29   29.80R
MOBRIDGE       CLOUDY    68  65  90 N12       29.80R
RAPID CITY     SUNNY     63  40  42 NW12      29.98R
$$

  *****  SOME WEATHER IN NEARBY STATES *****

CITY           SKY/WX    TMP DP  RH WIND       PRES   REMARKS
GLASGOW MT     SUNNY     56  37  49 SW8       29.88S
GREAT FALLS MT CLEAR     57  36  45 SW26G37   29.94S
CHEYENNE WY    MOSUNNY   68  48  48 SE9       30.13R
SCOTTSBLUFF NE SUNNY     66  57  72 W10       30.03R
OMAHA NE       PTSUNNY   73  62  68 SE15      29.81R
DES MOINES IA  CLOUDY    66  58  75 SE16G30   29.91F
DAVENPORT IA   LGT RAIN  61  59  93 S10       30.03F
CHICAGO IL     CLOUDY    63  50  62 SW8       30.09S
EAU CLAIRE WI  RAIN      63  62  97 NW3       29.89R
LA CROSSE WI   CLOUDY    65  61  87 S20G30    29.84F
$$

  *****  SOME NATIONAL WEATHER *****

CITY           SKY/WX    TMP DP  RH WIND       PRES   REMARKS
LA GUARDIA NY  MOSUNNY   72  54  53 N9        30.02R
RALEIGH NC     PTSUNNY   71  67  87 NE5       30.07R
ATLANTA GA     MOSUNNY   73  69  87 NW6       30.06R
NEW ORLEANS LA MOSUNNY   81  75  82 CALM      30.03R
OKLAHOMA CITY  SUNNY     74  68  81 S9        29.99S
ALBUQUERQUE NM PTCLDY    72  42  34 SE6       30.22R
SALT LAKE CITY PTCLDY    64  48  56 S3        30.03R
LOS ANGELES CA MOCLDY    71  64  78 SE10      29.87S
BOISE ID       CLEAR     52  40  63 S3        30.09R
SEATTLE WA     MOCLDY    55  52  88 CALM      30.18S
$$

*** WEATHER ACROSS MANITOBA...SASKATCHEWAN AND ONTARIO ***
                ***ONTARIO***

CITY           SKY/WX    TMP DP  RH WIND       PRES   REMARKS
GERALDTON      PTSUNNY   64  55  72 W9        29.83R
THUNDER BAY    MOSUNNY   61  55  82 CALM      29.85R
SIOUX LOOKOUT  MOSUNNY   63  59  88 VRB2      29.81S
TORONTO        SUNNY     64  48  55 W9        30.06F
BIG TROUT LK   SUNNY     57  46  67 NE5       29.78R
PICKLE LAKE    PTSUNNY   63  50  63 W9        29.79R
DRYDEN         SUNNY     64  61  88 S6        29.80S
KENORA         PTSUNNY   64  59  82 S5        29.79R
$$
                *** MANITOBA***

CITY           SKY/WX    TMP DP  RH WIND       PRES   REMARKS
BRANDON        PTSUNNY   66  64  94 W14       29.74R
DAUPHIN        CLOUDY    66  64  94 S5        29.69S
ISLAND LAKE    PTSUNNY   64  57  77 CALM      29.76
PILOT MOUND      N/A     66  64  94 S8          N/A
THE PAS        CLOUDY    66  64  94 SE8       29.64F
THOMPSON       MOSUNNY   59  54  82 E9        29.77F
WINNIPEG       CLOUDY    66  61  82 S7        29.74R
LYNN LAKE      SUNNY     63  50  63 E13       29.74F
CHURCHILL      MOSUNNY   54  48  82 NE15      29.87S
GILLAM         MOSUNNY   55  46  71 NE13      29.83S
$$
                ***SASKATCHEWAN***

CITY           SKY/WX    TMP DP  RH WIND       PRES   REMARKS
ESTEVAN        MOSUNNY   57  54  88 W6        29.82S
KINDERSLEY     PTSUNNY   50  45  81 S15       29.62S
LLOYDMINSTER   CLOUDY    52  50  93 SW8       29.46F
PRINCE ALBERT  MOSUNNY   55  50  82 S9        29.56F
REGINA         SUNNY     55  48  76 SW9       29.75S
YORKTON        SUNNY     61  52  72 SW7       29.71S



USA.gov is the U.S. government's official web portal to all federal, state and local government web resources and services.